Durant, OK

4:55 AM CDT on April 19, 2018 (GMT -0500)
Eaker

Weather History for KDUA - April, 2014

Change the Weather History Date:

Wednesday, April 16, 2014

  Actual Average (KMLC) Record (KMLC)
Temperature  
Mean Temperature 52 °F -  
Max Temperature 66 °F 75 °F 91 °F (2006)
Min Temperature 39 °F 51 °F 30 °F (2018)
Degree Days  
Heating Degree Days 12    
Growing Degree Days 2 (Base 50)    
Moisture  
Dew Point 35 °F    
Average Humidity 55    
Maximum Humidity 76    
Minimum Humidity 32    
Precipitation  
Precipitation 0.00 in - - ()
Sea Level Pressure  
Sea Level Pressure 30.06 in    
Wind  
Wind Speed 11 mph (SSE)    
Max Wind Speed 25 mph    
Max Gust Speed 32 mph    
Visibility 10 miles    
Events      
Averages and records for this station are not official NWS values.
T = Trace of Precipitation, MM = Missing Value Source: NWS Daily Summary

Daily Weather History Graph

Daily Weather History Graph

Search for Another Location

Airport or City:

Astronomy

Apr. 16, 2014 Rise Set
Actual Time 6:53 AM CDT 7:57 PM CDT
Civil Twilight 6:27 AM CDT 8:23 PM CDT
Nautical Twilight 5:57 AM CDT 8:54 PM CDT
Astronomical Twilight 5:25 AM CDT 9:25 PM CDT
Moon 9:38 PM CDT (4/16) 7:44 AM CDT (4/16)
Length of Visible Light 13h 55m
Length of Day
13h 04m
Full, 98% of the Moon is Illuminated
Apr 16
Full
Apr 22
Last Quarter
Apr 29
New
May 6
First Quarter
May 14
Full

Hourly Weather History & Observations

Time (CDT) Temp. Windchill Dew Point Humidity Pressure Visibility Wind Dir Wind Speed Gust Speed Precip Events Conditions
12:15 AM 42.8 °F 39.3 °F 33.8 °F 70% 30.13 in 10.0 mi SSE 5.8 mph - N/A   Clear
12:35 AM 42.8 °F 39.3 °F 33.8 °F 70% 30.13 in 10.0 mi SSE 5.8 mph - N/A   Clear
12:55 AM 42.8 °F 39.3 °F 33.8 °F 70% 30.12 in 10.0 mi SSE 5.8 mph - N/A   Clear
1:15 AM 41.0 °F 37.1 °F 33.8 °F 76% 30.12 in 10.0 mi SSE 5.8 mph - N/A   Clear
1:35 AM 41.0 °F 36.4 °F 33.8 °F 76% 30.12 in 10.0 mi South 6.9 mph - N/A   Clear
1:55 AM 41.0 °F 36.4 °F 33.8 °F 76% 30.11 in 10.0 mi South 6.9 mph - N/A   Clear
2:15 AM 41.0 °F 36.4 °F 33.8 °F 76% 30.10 in 10.0 mi SSE 6.9 mph - N/A   Clear
2:35 AM 41.0 °F 36.4 °F 33.8 °F 76% 30.09 in 10.0 mi SSE 6.9 mph - N/A   Clear
2:55 AM 41.0 °F 35.8 °F 33.8 °F 76% 30.08 in 10.0 mi SSE 8.1 mph - N/A   Clear
3:15 AM 41.0 °F 35.8 °F 33.8 °F 76% 30.08 in 2.0 mi SSE 8.1 mph - N/A   Haze
3:35 AM 42.8 °F 38.6 °F 33.8 °F 70% 30.08 in 10.0 mi South 6.9 mph - N/A   Clear
3:55 AM 41.0 °F 37.1 °F 33.8 °F 76% 30.09 in 10.0 mi South 5.8 mph - N/A   Clear
4:15 AM 41.0 °F 39.0 °F 32.0 °F 70% 30.09 in 10.0 mi South 3.5 mph - N/A   Clear
4:35 AM 39.2 °F 35.9 °F 32.0 °F 75% 30.09 in 7.0 mi SSE 4.6 mph - N/A   Clear
4:55 AM 39.2 °F 35.0 °F 32.0 °F 75% 30.09 in 10.0 mi South 5.8 mph - N/A   Clear
5:15 AM 41.0 °F 37.1 °F 32.0 °F 70% 30.09 in 10.0 mi SSE 5.8 mph - N/A   Clear
5:35 AM 39.2 °F 35.0 °F 32.0 °F 75% 30.08 in 10.0 mi SSE 5.8 mph - N/A   Clear
5:55 AM 39.2 °F 35.0 °F 32.0 °F 75% 30.08 in 7.0 mi SE 5.8 mph - N/A   Clear
6:15 AM 39.2 °F 34.2 °F 32.0 °F 75% 30.09 in 7.0 mi SSE 6.9 mph - N/A   Clear
6:35 AM 41.0 °F 35.8 °F 33.8 °F 76% 30.10 in 10.0 mi SSE 8.1 mph - N/A   Clear
6:55 AM 41.0 °F 36.4 °F 33.8 °F 76% 30.11 in 10.0 mi South 6.9 mph - N/A   Clear
7:15 AM 41.0 °F 35.2 °F 33.8 °F 76% 30.11 in 7.0 mi SSE 9.2 mph - N/A   Clear
7:35 AM 41.0 °F 35.2 °F 33.8 °F 76% 30.12 in 10.0 mi SSE 9.2 mph - N/A   Clear
7:55 AM 42.8 °F 37.0 °F 35.6 °F 76% 30.12 in 10.0 mi South 10.4 mph - N/A   Clear
8:15 AM 44.6 °F 38.4 °F 35.6 °F 71% 30.12 in 10.0 mi South 12.7 mph - N/A   Clear
8:35 AM 46.4 °F 40.1 °F 35.6 °F 66% 30.12 in 7.0 mi South 15.0 mph - N/A   Clear
8:55 AM 50.0 °F - 35.6 °F 58% 30.13 in 10.0 mi South 13.8 mph - N/A   Clear
9:15 AM 51.8 °F - 35.6 °F 54% 30.12 in 10.0 mi South 16.1 mph 20.7 mph N/A   Clear
9:35 AM 51.8 °F - 35.6 °F 54% 30.12 in 10.0 mi South 17.3 mph - N/A   Clear
9:55 AM 53.6 °F - 35.6 °F 51% 30.12 in 10.0 mi South 20.7 mph 25.3 mph N/A   Clear
10:15 AM 53.6 °F - 35.6 °F 51% 30.12 in 10.0 mi South 20.7 mph - N/A   Clear
10:35 AM 55.4 °F - 35.6 °F 47% 30.11 in 10.0 mi SSE 25.3 mph 29.9 mph N/A   Clear
10:55 AM 57.2 °F - 35.6 °F 44% 30.11 in 10.0 mi South 23.0 mph 29.9 mph N/A   Clear
11:15 AM 59.0 °F - 35.6 °F 42% 30.11 in 10.0 mi South 23.0 mph 29.9 mph N/A   Clear
11:35 AM 59.0 °F - 33.8 °F 39% 30.11 in 10.0 mi South 25.3 mph 32.2 mph N/A   Clear
11:55 AM 60.8 °F - 33.8 °F 36% 30.09 in 10.0 mi South 21.9 mph 31.1 mph N/A   Clear
12:15 PM 60.8 °F - 33.8 °F 36% 30.09 in 10.0 mi South 23.0 mph 32.2 mph N/A   Clear
12:35 PM 60.8 °F - 33.8 °F 36% 30.09 in 10.0 mi South 21.9 mph 28.8 mph N/A   Clear
12:55 PM 62.6 °F - 35.6 °F 37% 30.08 in 10.0 mi South 21.9 mph 26.5 mph N/A   Clear
1:15 PM 62.6 °F - 33.8 °F 34% 30.07 in 10.0 mi SSE 21.9 mph 28.8 mph N/A   Clear
1:35 PM 62.6 °F - 33.8 °F 34% 30.05 in 10.0 mi South 21.9 mph 27.6 mph N/A   Clear
1:55 PM 62.6 °F - 35.6 °F 37% 30.04 in 10.0 mi South 23.0 mph 32.2 mph N/A   Clear
2:15 PM 64.4 °F - 35.6 °F 34% 30.03 in 10.0 mi South 19.6 mph 28.8 mph N/A   Clear
2:35 PM 64.4 °F - 35.6 °F 34% 30.02 in 10.0 mi South 21.9 mph 28.8 mph N/A   Clear
2:55 PM 64.4 °F - 35.6 °F 34% 30.01 in 10.0 mi South 21.9 mph 29.9 mph N/A   Clear
3:15 PM 64.4 °F - 35.6 °F 34% 30.01 in 10.0 mi South 24.2 mph 27.6 mph N/A   Clear
3:35 PM 64.4 °F - 35.6 °F 34% 30.00 in 10.0 mi South 18.4 mph 25.3 mph N/A   Clear
3:55 PM 66.2 °F - 35.6 °F 32% 29.99 in 10.0 mi South 18.4 mph 26.5 mph N/A   Clear
4:15 PM 66.2 °F - 35.6 °F 32% 29.98 in 10.0 mi SSE 16.1 mph 25.3 mph N/A   Clear
4:35 PM 66.2 °F - 35.6 °F 32% 29.97 in 10.0 mi SSE 12.7 mph 24.2 mph N/A   Clear
4:55 PM 66.2 °F - 37.4 °F 35% 29.96 in 10.0 mi SSE 17.3 mph 26.5 mph N/A   Clear
5:15 PM 66.2 °F - 37.4 °F 35% 29.95 in 10.0 mi SSE 17.3 mph 24.2 mph N/A   Clear
5:35 PM 66.2 °F - 37.4 °F 35% 29.95 in 10.0 mi SSE 19.6 mph 23.0 mph N/A   Clear
5:55 PM 66.2 °F - 37.4 °F 35% 29.95 in 10.0 mi South 13.8 mph 23.0 mph N/A   Clear
6:15 PM 64.4 °F - 37.4 °F 37% 29.95 in 10.0 mi South 19.6 mph 25.3 mph N/A   Clear
6:35 PM 64.4 °F - 37.4 °F 37% 29.96 in 10.0 mi South 15.0 mph - N/A   Clear
6:55 PM 64.4 °F - 37.4 °F 37% 29.97 in 10.0 mi SSE 13.8 mph - N/A   Clear
7:15 PM 64.4 °F - 37.4 °F 37% 29.97 in 10.0 mi SSE 13.8 mph - N/A   Clear
7:35 PM 62.6 °F - 37.4 °F 39% 29.98 in 10.0 mi SSE 12.7 mph - N/A   Clear
7:55 PM 60.8 °F - 37.4 °F 42% 29.98 in 10.0 mi SE 6.9 mph - N/A   Clear
8:15 PM 59.0 °F - 37.4 °F 45% 29.99 in 10.0 mi SE 8.1 mph - N/A   Clear
8:35 PM 55.4 °F - 37.4 °F 51% 30.00 in 10.0 mi SE 4.6 mph - N/A   Clear
8:55 PM 53.6 °F - 37.4 °F 54% 30.02 in 10.0 mi SE 5.8 mph - N/A   Clear
9:15 PM 51.8 °F - 37.4 °F 58% 30.02 in 10.0 mi SE 6.9 mph - N/A   Clear
9:35 PM 51.8 °F - 37.4 °F 58% 30.02 in 10.0 mi SE 6.9 mph - N/A   Clear
9:55 PM 51.8 °F - 39.2 °F 62% 30.03 in 10.0 mi ESE 5.8 mph - N/A   Clear
10:15 PM 51.8 °F - 39.2 °F 62% 30.03 in 10.0 mi SE 5.8 mph - N/A   Clear
10:35 PM 51.8 °F - 39.2 °F 62% 30.04 in 10.0 mi ESE 5.8 mph - N/A   Clear
10:55 PM 50.0 °F - 37.4 °F 62% 30.05 in 10.0 mi ESE 5.8 mph - N/A   Clear
11:15 PM 50.0 °F - 37.4 °F 62% 30.05 in 10.0 mi East 4.6 mph - N/A   Clear
11:35 PM 46.4 °F 44.3 °F 37.4 °F 71% 30.06 in 10.0 mi East 4.6 mph - N/A   Clear
11:55 PM 46.4 °F 45.2 °F 37.4 °F 71% 30.06 in 10.0 mi East 3.5 mph - N/A   Clear